| time (UTC) | temp F | wind direction | speed MPH | gust MPH | rain 1hr in | rain 24hr in | rain mn in | humidity % | barometer mb |
| 20260507090058 | 60 | 281 | 0.0 | 0.0 | 0.00 | 0.03 | 0.00 | 91 | 1017.2 |
| 20260507084603 | 60 | 281 | 0.0 | 0.0 | 0.00 | 0.03 | 0.00 | 91 | 1017.4 |
| 20260507083051 | 60 | 281 | 0.0 | 0.0 | 0.00 | 0.03 | 0.00 | 92 | 1017.4 |
| 20260507081548 | 60 | 281 | 0.0 | 0.0 | 0.00 | 0.03 | 0.00 | 91 | 1017.5 |
| 20260507080053 | 60 | 281 | 0.0 | 0.0 | 0.00 | 0.03 | 0.00 | 91 | 1017.6 |
| 20260507074546 | 60 | 281 | 0.0 | 0.0 | 0.00 | 0.03 | 0.00 | 91 | 1017.8 |
| 20260507073045 | 60 | 281 | 0.0 | 0.0 | 0.00 | 0.03 | 0.00 | 90 | 1017.8 |
| 20260507071541 | 61 | 281 | 0.0 | 0.0 | 0.00 | 0.03 | 0.00 | 90 | 1017.9 |
| 20260507070059 | 61 | 280 | 0.0 | 0.0 | 0.00 | 0.03 | 0.00 | 90 | 1017.9 |
| 20260507064548 | 62 | 280 | 0.0 | 5.0 | 0.00 | 0.03 | 0.03 | 89 | 1018.1 |
| 20260507063038 | 62 | 290 | 4.0 | 8.0 | 0.00 | 0.03 | 0.03 | 90 | 1018.2 |
| 20260507061538 | 62 | 306 | 3.0 | 5.0 | 0.00 | 0.03 | 0.03 | 90 | 1018.1 |
| 20260507060037 | 62 | 296 | 4.0 | 8.0 | 0.00 | 0.03 | 0.03 | 91 | 1018.2 |
| 20260507054554 | 62 | 290 | 5.0 | 8.0 | 0.00 | 0.04 | 0.03 | 91 | 1018.2 |
| 20260507053036 | 62 | 287 | 2.0 | 8.0 | 0.01 | 0.04 | 0.03 | 92 | 1018.2 |
| 20260507051537 | 62 | 313 | 5.0 | 8.0 | 0.01 | 0.04 | 0.03 | 91 | 1018.2 |
| 20260507050042 | 62 | 318 | 5.0 | 8.0 | 0.01 | 0.04 | 0.03 | 92 | 1018.1 |
| 20260507044539 | 62 | 311 | 8.0 | 11.0 | 0.01 | 0.04 | 0.03 | 92 | 1018.1 |
| 20260507043034 | 62 | 311 | 6.0 | 10.0 | 0.00 | 0.03 | 0.02 | 92 | 1018.0 |
| 20260507041532 | 62 | 306 | 8.0 | 11.0 | 0.00 | 0.03 | 0.02 | 91 | 1017.8 |
| 20260507040038 | 62 | 304 | 7.0 | 10.0 | 0.00 | 0.03 | 0.02 | 91 | 1017.8 |
| 20260507034532 | 62 | 320 | 5.0 | 9.0 | 0.00 | 0.03 | 0.02 | 91 | 1017.6 |
| 20260507033030 | 62 | 307 | 5.0 | 9.0 | 0.00 | 0.03 | 0.02 | 91 | 1017.5 |
| 20260507031530 | 62 | 284 | 7.0 | 9.0 | 0.00 | 0.03 | 0.02 | 90 | 1017.3 |
| 20260507030031 | 62 | 299 | 5.0 | 10.0 | 0.00 | 0.03 | 0.02 | 90 | 1017.1 |
| 20260507024534 | 62 | 315 | 7.0 | 11.0 | 0.00 | 0.03 | 0.02 | 90 | 1017.3 |
| 20260507023027 | 62 | 298 | 7.0 | 12.0 | 0.00 | 0.03 | 0.02 | 90 | 1017.2 |
| 20260507021534 | 63 | 267 | 10.0 | 13.0 | 0.00 | 0.03 | 0.02 | 89 | 1017.3 |
| 20260507020026 | 63 | 275 | 9.0 | 13.0 | 0.00 | 0.03 | 0.02 | 89 | 1017.2 |
| 20260507014528 | 63 | 290 | 10.0 | 13.0 | 0.00 | 0.04 | 0.02 | 90 | 1017.1 |
| 20260507013024 | 63 | 284 | 10.0 | 14.0 | 0.00 | 0.04 | 0.02 | 90 | 1016.9 |
| 20260507011524 | 63 | 264 | 9.0 | 12.0 | 0.00 | 0.04 | 0.02 | 90 | 1016.8 |
| 20260507010030 | 63 | 257 | 9.0 | 12.0 | 0.00 | 0.04 | 0.02 | 90 | 1016.9 |
| 20260507004519 | 63 | 274 | 11.0 | 13.0 | 0.00 | 0.04 | 0.02 | 90 | 1017.1 |
| 20260507003015 | 63 | 259 | 11.0 | 14.0 | 0.00 | 0.04 | 0.02 | 90 | 1017.0 |
| 20260507001514 | 63 | 258 | 12.0 | 14.0 | 0.00 | 0.04 | 0.02 | 89 | 1016.9 |
| 20260507000008 | 63 | 262 | 11.0 | 14.0 | 0.00 | 0.04 | 0.02 | 89 | 1016.7 |
| 20260506234504 | 63 | 275 | 11.0 | 14.0 | 0.00 | 0.04 | 0.02 | 89 | 1016.7 |
| 20260506233100 | 63 | 271 | 10.0 | 13.0 | 0.00 | 0.04 | 0.02 | 89 | 1016.7 |
| 20260506231559 | 63 | 254 | 12.0 | 15.0 | 0.00 | 0.04 | 0.02 | 89 | 1016.8 |
| 20260506230104 | 62 | 273 | 11.0 | 16.0 | 0.00 | 0.04 | 0.02 | 88 | 1016.8 |
| 20260506224556 | 63 | 267 | 10.0 | 16.0 | 0.00 | 0.04 | 0.02 | 88 | 1016.8 |
| 20260506223055 | 63 | 270 | 13.0 | 17.0 | 0.00 | 0.04 | 0.02 | 89 | 1017.0 |
| 20260506221600 | 62 | 251 | 14.0 | 16.0 | 0.00 | 0.04 | 0.02 | 88 | 1017.1 |
| 20260506220050 | 62 | 265 | 12.0 | 18.0 | 0.00 | 0.04 | 0.02 | 87 | 1017.4 |
| 20260506214549 | 62 | 261 | 13.0 | 17.0 | 0.00 | 0.05 | 0.02 | 88 | 1017.4 |
| 20260506213054 | 62 | 268 | 13.0 | 18.0 | 0.00 | 0.05 | 0.02 | 87 | 1017.5 |
| 20260506211553 | 62 | 256 | 15.0 | 18.0 | 0.00 | 0.05 | 0.02 | 87 | 1017.6 |
| 20260506210048 | 62 | 261 | 14.0 | 18.0 | 0.00 | 0.05 | 0.02 | 86 | 1017.8 |
| 20260506204546 | 62 | 265 | 13.0 | 17.0 | 0.00 | 0.05 | 0.02 | 86 | 1017.8 |
| 20260506203044 | 62 | 250 | 15.0 | 17.0 | 0.00 | 0.05 | 0.02 | 86 | 1017.9 |
| 20260506201543 | 62 | 254 | 13.0 | 16.0 | 0.00 | 0.05 | 0.02 | 86 | 1017.9 |
| 20260506200045 | 62 | 240 | 10.0 | 13.0 | 0.00 | 0.05 | 0.02 | 87 | 1018.2 |
| 20260506194543 | 62 | 234 | 11.0 | 14.0 | 0.00 | 0.05 | 0.02 | 86 | 1018.4 |
| 20260506193047 | 62 | 234 | 13.0 | 15.0 | 0.00 | 0.05 | 0.02 | 86 | 1018.3 |
| 20260506191539 | 62 | 227 | 10.0 | 13.0 | 0.00 | 0.05 | 0.02 | 86 | 1018.7 |
| 20260506190036 | 61 | 238 | 10.0 | 12.0 | 0.00 | 0.05 | 0.02 | 85 | 1018.6 |
| 20260506184539 | 61 | 250 | 9.0 | 11.0 | 0.01 | 0.06 | 0.02 | 85 | 1018.8 |
| 20260506183034 | 61 | 248 | 8.0 | 10.0 | 0.01 | 0.06 | 0.02 | 85 | 1018.9 |
| 20260506181542 | 61 | 248 | 9.0 | 11.0 | 0.01 | 0.06 | 0.02 | 85 | 1018.9 |
| 20260506180031 | 61 | 242 | 7.0 | 9.0 | 0.01 | 0.06 | 0.02 | 85 | 1018.9 |
| 20260506174535 | 61 | 252 | 7.0 | 9.0 | 0.00 | 0.05 | 0.01 | 85 | 1018.8 |
| 20260506173048 | 61 | 234 | 5.0 | 8.0 | 0.00 | 0.05 | 0.01 | 85 | 1019.0 |
| 20260506171539 | 61 | 264 | 6.0 | 8.0 | 0.00 | 0.05 | 0.01 | 84 | 1019.0 |
| 20260506170038 | 61 | 266 | 6.0 | 8.0 | 0.00 | 0.05 | 0.01 | 84 | 1019.1 |
| 20260506164526 | 62 | 257 | 4.0 | 7.0 | 0.00 | 0.06 | 0.01 | 83 | 1019.1 |
| 20260506163029 | 62 | 309 | 4.0 | 8.0 | 0.00 | 0.06 | 0.01 | 83 | 1019.0 |
| 20260506161524 | 62 | 322 | 2.0 | 5.0 | 0.00 | 0.06 | 0.01 | 83 | 1018.9 |
| 20260506160022 | 62 | 269 | 2.0 | 5.0 | 0.00 | 0.06 | 0.01 | 82 | 1019.0 |
| 20260506154520 | 62 | 54 | 0.0 | 4.0 | 0.00 | 0.06 | 0.01 | 83 | 1019.0 |
| 20260506153022 | 61 | 63 | 2.0 | 6.0 | 0.00 | 0.06 | 0.01 | 83 | 1018.9 |
| 20260506151513 | 60 | 50 | 5.0 | 7.0 | 0.00 | 0.06 | 0.01 | 84 | 1018.9 |
| 20260506150015 | 59 | 51 | 5.0 | 9.0 | 0.00 | 0.06 | 0.01 | 85 | 1018.9 |
| 20260506144510 | 58 | 30 | 5.0 | 9.0 | 0.00 | 0.07 | 0.01 | 87 | 1018.7 |
| 20260506143019 | 57 | 44 | 6.0 | 10.0 | 0.00 | 0.07 | 0.01 | 88 | 1018.7 |
| 20260506141608 | 56 | 44 | 7.0 | 11.0 | 0.00 | 0.07 | 0.01 | 88 | 1018.7 |
| 20260506140013 | 56 | 57 | 7.0 | 11.0 | 0.00 | 0.07 | 0.01 | 88 | 1018.4 |
| 20260506134505 | 55 | 40 | 6.0 | 11.0 | 0.00 | 0.07 | 0.01 | 89 | 1018.4 |
| 20260506133003 | 55 | 44 | 6.0 | 10.0 | 0.00 | 0.07 | 0.01 | 88 | 1018.3 |
| 20260506131507 | 55 | 47 | 7.0 | 10.0 | 0.00 | 0.07 | 0.01 | 89 | 1018.3 |
| 20260506130002 | 54 | 53 | 6.0 | 10.0 | 0.00 | 0.07 | 0.01 | 89 | 1018.1 |
| 20260506124601 | 55 | 50 | 8.0 | 12.0 | 0.00 | 0.08 | 0.01 | 88 | 1017.9 |
| 20260506123057 | 56 | 49 | 5.0 | 9.0 | 0.00 | 0.08 | 0.01 | 87 | 1017.8 |
| 20260506121554 | 56 | 49 | 5.0 | 7.0 | 0.00 | 0.08 | 0.01 | 87 | 1017.7 |
| 20260506120052 | 56 | 55 | 6.0 | 10.0 | 0.01 | 0.08 | 0.01 | 86 | 1017.7 |
| 20260506114553 | 57 | 60 | 6.0 | 9.0 | 0.01 | 0.08 | 0.01 | 86 | 1017.7 |
| 20260506113048 | 57 | 52 | 5.0 | 7.0 | 0.01 | 0.08 | 0.01 | 86 | 1017.7 |
| 20260506111547 | 57 | 52 | 4.0 | 6.0 | 0.01 | 0.08 | 0.01 | 86 | 1017.7 |
| 20260506110047 | 57 | 56 | 5.0 | 9.0 | 0.00 | 0.07 | 0.00 | 86 | 1017.8 |
| 20260506104608 | 56 | 46 | 7.0 | 10.0 | 0.00 | 0.08 | 0.00 | 86 | 1017.8 |
| 20260506103044 | 56 | 49 | 6.0 | 10.0 | 0.00 | 0.08 | 0.00 | 86 | 1017.7 |
| 20260506101544 | 56 | 46 | 5.0 | 9.0 | 0.00 | 0.08 | 0.00 | 86 | 1017.7 |
| 20260506100043 | 57 | 42 | 4.0 | 6.0 | 0.00 | 0.08 | 0.00 | 85 | 1017.6 |
| 20260506094538 | 58 | 51 | 2.0 | 3.0 | 0.00 | 0.08 | 0.00 | 85 | 1017.6 |
| 20260506093034 | 58 | 51 | 0.0 | 3.0 | 0.00 | 0.08 | 0.00 | 85 | 1017.6 |
| 20260506091532 | 58 | 49 | 2.0 | 3.0 | 0.00 | 0.08 | 0.00 | 85 | 1017.8 |